Date String (YYYY-MM-DD hh:mm:ss) UTC,Instrument flags,Ambient pressure (hPa),Sample flow (lpm),Bypass flow (lpm),Sample temperature (°C),Ambient temperature (°C),ASC tube jacket temperature (°C),LED temperature (°C),Box temperature (°C),Sample RH (%),Mass concentration (μg/m³),Mass concentration (μg/m³)
DateTimeUTC,F1_M11,P_M11,Q1_M11,Q2_M11,T1_M11,T2_M11,T3_M11,T4_M11,T5_M11,U1_M11,X0_M11,X2_M11
2021-08-13 04:00:00,,0833.5,5.00,0.00,29.0,27.3,00.0,38.2,31.0,30.0,0031.15,0014.52
2021-08-13 04:01:00,,0833.6,4.99,0.00,29.0,27.6,00.0,38.2,31.1,30.0,0031.62,0014.38
2021-08-13 04:02:00,,0833.5,5.01,0.00,29.1,27.9,00.0,38.2,31.1,29.9,0031.27,0014.27
2021-08-13 04:03:00,,0833.5,5.00,0.00,29.2,28.1,00.0,38.3,31.2,29.8,0031.89,0014.19
2021-08-13 04:04:00,,0833.6,5.00,0.00,29.2,28.3,00.0,38.3,31.3,29.7,0032.30,0014.16
2021-08-13 04:05:00,,0833.6,5.02,0.00,29.3,28.5,00.0,38.3,31.3,29.5,0032.84,0014.14
2021-08-13 04:06:00,,0833.5,5.00,0.00,29.3,28.6,00.0,38.3,31.4,29.4,0035.17,0014.11
2021-08-13 04:07:00,,0833.6,4.99,0.00,29.4,28.7,00.0,38.4,31.4,29.4,0035.83,0014.06
2021-08-13 04:08:00,,0833.6,5.00,0.00,29.5,28.8,00.0,38.4,31.5,29.2,0034.40,0013.91
2021-08-13 04:09:00,,0833.6,4.99,0.00,29.5,28.8,00.0,38.4,31.5,29.0,0033.99,0013.87
2021-08-13 04:10:00,,0833.6,5.01,0.00,29.5,27.3,00.0,38.4,31.2,29.1,0034.17,0013.88
2021-08-13 04:11:00,,0833.6,5.00,0.00,29.3,25.7,00.0,38.4,30.8,29.4,0034.55,0013.94
2021-08-13 04:12:00,,0833.6,5.00,0.00,29.1,25.6,00.0,38.4,30.6,29.9,0035.14,0014.00
2021-08-13 04:13:00,,0833.6,4.99,0.00,29.0,26.0,00.0,38.3,30.7,30.1,0035.11,0013.95
2021-08-13 04:14:00,,0833.6,5.01,0.00,28.9,26.5,00.0,38.3,30.8,30.3,0033.73,0013.86
2021-08-13 04:15:00,,0833.6,5.00,0.00,29.0,26.9,00.0,38.2,30.9,30.3,0034.63,0013.85
2021-08-13 04:16:00,,0833.6,4.99,0.00,29.0,27.3,00.0,38.2,31.0,30.1,0034.51,0013.84
2021-08-13 04:17:00,,0833.6,5.01,0.00,29.0,27.6,00.0,38.2,31.1,30.2,0033.12,0013.78
2021-08-13 04:18:00,,0833.6,4.99,0.00,29.1,27.9,00.0,38.2,31.2,30.1,0032.98,0013.72
2021-08-13 04:19:00,,0833.6,5.00,0.00,29.2,28.1,00.0,38.3,31.2,29.9,0033.48,0013.79
2021-08-13 04:20:00,,0833.6,5.01,0.00,29.2,28.3,00.0,38.3,31.3,29.9,0033.94,0013.78
2021-08-13 04:21:00,,0833.6,4.99,0.00,29.3,28.5,00.0,38.3,31.4,29.7,0034.66,0013.70
2021-08-13 04:22:00,,0833.6,4.99,0.00,29.4,28.6,00.0,38.3,31.4,29.6,0034.11,0013.57
2021-08-13 04:23:00,,0833.6,5.00,0.00,29.4,28.7,00.0,38.4,31.5,29.5,0033.57,0013.47
2021-08-13 04:24:00,,0833.6,5.01,0.00,29.5,28.8,00.0,38.4,31.5,29.4,0033.21,0013.42
2021-08-13 04:25:00,,0833.6,4.99,0.00,29.5,28.1,00.0,38.4,31.3,29.3,0034.16,0013.38
2021-08-13 04:26:00,,0833.7,5.00,0.00,29.4,26.2,00.0,38.4,30.9,29.6,0032.93,0013.28
2021-08-13 04:27:00,,0833.6,5.00,0.00,29.2,25.5,00.0,38.4,30.6,30.0,0033.51,0013.37
2021-08-13 04:28:00,,0833.6,5.01,0.00,29.0,25.8,00.0,38.3,30.7,30.5,0032.60,0013.36
2021-08-13 04:29:00,,0833.7,5.00,0.00,28.9,26.2,00.0,38.3,30.8,30.7,0031.39,0013.37
2021-08-13 04:30:00,,0833.7,5.00,0.00,28.9,26.7,00.0,38.2,30.9,30.7,0030.97,0013.38
2021-08-13 04:31:00,,0833.7,5.01,0.00,29.0,27.1,00.0,38.2,31.0,30.6,0029.78,0013.40
2021-08-13 04:32:00,,0833.7,4.99,0.00,29.0,27.4,00.0,38.2,31.0,30.6,0029.28,0013.44
2021-08-13 04:33:00,,0833.8,5.00,0.00,29.1,27.7,00.0,38.2,31.1,30.4,0030.40,0013.53
2021-08-13 04:34:00,,0833.8,5.00,0.00,29.1,28.0,00.0,38.2,31.2,30.0,0031.32,0013.50
2021-08-13 04:35:00,,0833.9,4.99,0.00,29.2,28.2,00.0,38.2,31.3,29.4,0030.88,0013.38
2021-08-13 04:36:00,,0833.9,5.00,0.00,29.3,28.4,00.0,38.3,31.3,29.1,0030.91,0013.22
2021-08-13 04:37:00,,0833.9,5.01,0.00,29.3,28.5,00.0,38.3,31.4,29.4,0031.11,0013.09
2021-08-13 04:38:00,,0834.0,5.00,0.00,29.4,28.6,00.0,38.3,31.4,29.1,0030.33,0012.88
2021-08-13 04:39:00,,0834.0,5.00,0.00,29.5,28.8,00.0,38.4,31.5,29.0,0029.51,0012.67
2021-08-13 04:40:00,,0834.0,5.02,0.00,29.5,28.9,00.0,38.4,31.5,29.0,0029.84,0012.45
2021-08-13 04:41:00,,0834.0,4.99,0.00,29.5,28.1,00.0,38.4,31.3,28.9,0031.11,0012.26
2021-08-13 04:42:00,,0834.1,5.00,0.00,29.4,26.2,00.0,38.4,30.9,29.0,0030.51,0012.06
2021-08-13 04:43:00,,0834.0,4.99,0.00,29.2,25.4,00.0,38.4,30.6,29.6,0030.78,0011.88
2021-08-13 04:44:00,,0834.0,5.01,0.00,29.0,25.7,00.0,38.3,30.7,29.6,0030.53,0011.67
2021-08-13 04:45:00,,0833.9,4.99,0.00,28.9,26.2,00.0,38.3,30.8,29.9,0029.19,0011.58
2021-08-13 04:46:00,,0833.9,5.00,0.00,28.9,26.6,00.0,38.3,30.9,30.3,0029.29,0011.59
2021-08-13 04:47:00,,0833.9,5.01,0.00,28.9,27.0,00.0,38.2,30.9,30.2,0028.39,0011.66
2021-08-13 04:48:00,,0834.0,5.00,0.00,29.0,27.4,00.0,38.2,31.0,30.2,0027.26,0011.67
2021-08-13 04:49:00,,0834.0,5.00,0.00,29.0,27.7,00.0,38.2,31.1,30.1,0026.78,0011.61
2021-08-13 04:50:00,,0834.0,4.99,0.00,29.1,27.9,00.0,38.2,31.2,29.8,0027.84,0011.65
2021-08-13 04:51:00,,0834.0,5.01,0.00,29.2,28.2,00.0,38.2,31.2,29.4,0028.81,0011.68
2021-08-13 04:52:00,,0834.0,4.99,0.00,29.2,28.3,00.0,38.3,31.3,29.2,0025.90,0011.58
2021-08-13 04:53:00,,0834.0,5.01,0.00,29.3,28.5,00.0,38.3,31.4,29.2,0026.24,0011.46
2021-08-13 04:54:00,,0834.0,5.00,0.00,29.4,28.6,00.0,38.3,31.4,29.2,0025.82,0011.34
2021-08-13 04:55:00,,0834.0,4.99,0.00,29.4,28.7,00.0,38.3,31.5,29.1,0025.20,0011.28
2021-08-13 04:56:00,,0834.0,5.02,0.00,29.5,28.8,00.0,38.4,31.5,28.7,0025.91,0011.18
2021-08-13 04:57:00,,0834.0,4.99,0.00,29.5,28.9,00.0,38.4,31.5,28.6,0025.79,0011.05
2021-08-13 04:58:00,,0834.0,4.99,0.00,29.6,28.2,00.0,38.4,31.4,28.5,0026.49,0010.89
2021-08-13 04:59:00,,0834.0,5.00,0.00,29.4,26.4,00.0,38.4,30.9,28.7,0026.83,0010.82
